Year,Month,Day,Hour,Minute,Value (Times are PST for temperature in C)
2008,07,25,00,00,14.90
2008,07,25,00,01,14.90
2008,07,25,00,02,14.90
2008,07,25,00,03,15.00
2008,07,25,00,04,15.00
2008,07,25,00,05,15.00
2008,07,25,00,06,15.00
2008,07,25,00,07,15.00
2008,07,25,00,08,15.00
2008,07,25,00,09,15.00
2008,07,25,00,10,15.00
2008,07,25,00,11,14.90
2008,07,25,00,12,14.90
2008,07,25,01,02,14.20
2008,07,25,01,03,14.20
2008,07,25,01,04,14.20
2008,07,25,01,05,14.10
2008,07,25,01,06,14.10
2008,07,25,01,07,14.10
2008,07,25,01,08,14.00
2008,07,25,01,09,14.00
2008,07,25,01,10,14.00
2008,07,25,01,11,13.90
2008,07,25,01,12,13.90
2008,07,25,01,13,13.90
2008,07,25,01,14,13.80
2008,07,25,01,15,13.90
2008,07,25,01,16,13.90
2008,07,25,01,17,13.90
2008,07,25,01,18,13.90
2008,07,25,01,19,14.00
2008,07,25,01,20,14.00
2008,07,25,01,21,14.10
2008,07,25,01,22,14.10
2008,07,25,01,23,14.10
2008,07,25,01,24,14.20
2008,07,25,01,25,14.20
2008,07,25,01,26,14.20
2008,07,25,01,27,14.20
2008,07,25,01,28,14.10
2008,07,25,01,29,14.10
2008,07,25,01,30,14.10
2008,07,25,01,31,14.00
2008,07,25,01,32,14.00
2008,07,25,01,33,13.90
2008,07,25,01,34,13.90
2008,07,25,01,35,13.90
2008,07,25,01,36,13.90
2008,07,25,01,37,13.90
2008,07,25,01,38,13.90
2008,07,25,01,39,13.90
2008,07,25,01,40,13.90
2008,07,25,01,41,13.90
2008,07,25,01,42,13.90
2008,07,25,01,43,13.90
2008,07,25,01,44,13.90
2008,07,25,01,45,13.90
2008,07,25,01,46,13.90
2008,07,25,01,47,13.90
2008,07,25,01,48,13.90
2008,07,25,01,49,13.90
2008,07,25,01,50,13.90
2008,07,25,01,51,13.90
2008,07,25,01,52,13.90
2008,07,25,01,53,13.90
2008,07,25,01,54,13.90
2008,07,25,01,55,13.90
2008,07,25,01,56,13.90
2008,07,25,01,57,13.90
2008,07,25,01,58,13.90
2008,07,25,01,59,13.90
2008,07,25,02,00,13.90
2008,07,25,02,01,13.90
2008,07,25,02,02,13.90
2008,07,25,02,03,13.90
2008,07,25,02,04,13.90
2008,07,25,02,05,13.90
2008,07,25,02,06,13.90
2008,07,25,02,07,13.90
2008,07,25,02,08,13.90
2008,07,25,02,09,13.90
2008,07,25,02,10,13.90
2008,07,25,02,11,13.90
2008,07,25,02,12,13.90
2008,07,25,02,13,13.90
2008,07,25,02,14,13.90
2008,07,25,02,15,13.90
2008,07,25,02,16,13.90
2008,07,25,02,17,13.90
2008,07,25,02,18,13.90
2008,07,25,02,19,13.90
2008,07,25,02,20,13.80
2008,07,25,02,21,13.80
2008,07,25,02,22,13.70
2008,07,25,02,23,13.70
2008,07,25,02,24,13.70
2008,07,25,02,25,13.70
2008,07,25,02,26,13.60
2008,07,25,02,27,13.60
2008,07,25,02,28,13.60
2008,07,25,02,29,13.60
2008,07,25,02,30,13.60
2008,07,25,02,31,13.60
2008,07,25,02,32,13.60
2008,07,25,02,33,13.50
2008,07,25,02,34,13.50
2008,07,25,02,35,13.40
2008,07,25,02,36,13.40
2008,07,25,02,37,13.40
2008,07,25,02,38,13.40
2008,07,25,02,39,13.30
2008,07,25,02,40,13.30
2008,07,25,02,41,13.30
2008,07,25,02,42,13.30
2008,07,25,02,43,13.20
2008,07,25,02,44,13.20
2008,07,25,02,45,13.20
2008,07,25,02,46,13.20
2008,07,25,02,47,13.20
2008,07,25,02,48,13.20
2008,07,25,02,49,13.20
2008,07,25,02,50,13.20
2008,07,25,02,51,13.20
2008,07,25,02,52,13.20
2008,07,25,02,53,13.20
2008,07,25,02,54,13.20
2008,07,25,02,55,13.20
2008,07,25,02,56,13.20
2008,07,25,02,57,13.20
2008,07,25,02,58,13.20
2008,07,25,02,59,13.10
2008,07,25,03,00,13.10
2008,07,25,03,01,13.10
2008,07,25,03,02,13.10
2008,07,25,03,03,13.10
2008,07,25,03,04,13.10
2008,07,25,03,05,13.00
2008,07,25,03,06,13.00
2008,07,25,03,07,13.00
2008,07,25,03,08,13.00
2008,07,25,03,09,13.00
2008,07,25,03,10,13.10
2008,07,25,03,11,13.20
2008,07,25,03,12,13.20
2008,07,25,03,13,13.30
2008,07,25,03,14,13.40
2008,07,25,03,15,13.40
2008,07,25,03,16,13.40
2008,07,25,03,17,13.50
2008,07,25,03,18,13.50
2008,07,25,03,19,13.50
2008,07,25,03,20,13.60
2008,07,25,03,21,13.60
2008,07,25,03,22,13.60
2008,07,25,03,23,13.70
2008,07,25,03,24,13.70
2008,07,25,03,25,13.60
2008,07,25,03,26,13.60
2008,07,25,03,27,13.70
2008,07,25,03,28,13.70
2008,07,25,03,29,13.70
2008,07,25,03,30,13.70
2008,07,25,03,31,13.70
2008,07,25,03,32,13.70
2008,07,25,03,33,13.70
2008,07,25,03,34,13.70
2008,07,25,03,35,13.70
2008,07,25,03,36,13.70
2008,07,25,03,37,13.70
2008,07,25,03,38,13.70
2008,07,25,03,39,13.80
2008,07,25,03,40,13.70
2008,07,25,03,41,13.80
2008,07,25,03,42,13.90
2008,07,25,03,43,13.90
2008,07,25,03,44,13.90
2008,07,25,03,45,13.90
2008,07,25,03,46,13.90
2008,07,25,03,47,13.90
2008,07,25,03,48,14.00
2008,07,25,03,49,13.90
2008,07,25,03,50,13.90
2008,07,25,03,51,13.90
2008,07,25,03,52,13.90
2008,07,25,03,53,13.80
2008,07,25,03,54,13.80
2008,07,25,03,55,13.80
2008,07,25,03,56,13.70
2008,07,25,03,57,13.70
2008,07,25,03,58,13.70
2008,07,25,03,59,13.60
2008,07,25,04,00,13.60
2008,07,25,04,01,13.60
2008,07,25,04,02,13.60
2008,07,25,04,03,13.60
2008,07,25,04,04,13.60
2008,07,25,04,05,13.60
2008,07,25,04,06,13.60
2008,07,25,04,07,13.60
2008,07,25,04,08,13.60
2008,07,25,04,09,13.70
2008,07,25,04,10,13.70
2008,07,25,04,11,13.70
2008,07,25,04,12,13.70
2008,07,25,04,13,13.70
2008,07,25,04,14,13.80
2008,07,25,04,15,13.80
2008,07,25,04,16,13.80
2008,07,25,04,17,13.80
2008,07,25,04,18,13.80
2008,07,25,04,19,13.80
2008,07,25,04,20,13.80
2008,07,25,04,21,13.80
2008,07,25,04,22,13.80
2008,07,25,04,23,13.80
2008,07,25,04,24,13.80
2008,07,25,04,25,13.80
2008,07,25,04,26,13.80
2008,07,25,04,27,13.80
2008,07,25,04,28,13.80
2008,07,25,04,29,13.80
2008,07,25,04,30,13.80
2008,07,25,04,31,13.80
2008,07,25,04,32,13.80
2008,07,25,04,33,13.80
2008,07,25,04,34,13.70
2008,07,25,04,35,13.70
2008,07,25,04,36,13.60
2008,07,25,04,37,13.50
2008,07,25,04,38,13.40
2008,07,25,04,39,13.40
2008,07,25,04,40,13.30
2008,07,25,04,41,13.30
2008,07,25,04,42,13.30
2008,07,25,04,43,13.40
2008,07,25,04,44,13.50
2008,07,25,04,45,13.50
2008,07,25,04,46,13.60
2008,07,25,04,47,13.60
2008,07,25,04,48,13.50
2008,07,25,04,49,13.50
2008,07,25,04,50,13.50
2008,07,25,04,51,13.50
2008,07,25,04,52,13.50
2008,07,25,04,53,13.40
2008,07,25,04,54,13.40
2008,07,25,04,55,13.40
2008,07,25,04,56,13.30
2008,07,25,04,57,13.30
2008,07,25,04,58,13.20
2008,07,25,04,59,13.20
2008,07,25,05,00,13.20
2008,07,25,05,01,13.20
2008,07,25,05,02,13.20
2008,07,25,05,03,13.20
2008,07,25,05,04,13.20
2008,07,25,05,05,13.10
2008,07,25,05,06,13.10
2008,07,25,05,07,13.10
2008,07,25,05,08,13.10
2008,07,25,05,09,13.00
2008,07,25,05,10,12.90
2008,07,25,05,11,12.90
2008,07,25,05,12,12.90
2008,07,25,05,13,12.80
2008,07,25,05,14,12.80
2008,07,25,05,15,12.80
2008,07,25,05,16,12.70
2008,07,25,05,17,12.70
2008,07,25,05,18,12.70
2008,07,25,05,19,12.70
2008,07,25,05,20,12.70
2008,07,25,05,21,12.70
2008,07,25,05,22,12.70
2008,07,25,05,23,12.70
2008,07,25,05,24,12.70
2008,07,25,05,25,12.70
2008,07,25,05,26,12.70
2008,07,25,05,27,12.70
2008,07,25,05,28,12.70
2008,07,25,05,29,12.70
2008,07,25,05,30,12.70
2008,07,25,05,31,12.70
2008,07,25,05,32,12.70
2008,07,25,05,33,12.70
2008,07,25,05,34,12.60
2008,07,25,05,35,12.60
2008,07,25,05,36,12.60
2008,07,25,05,37,12.50
2008,07,25,05,38,12.50
2008,07,25,05,39,12.50
2008,07,25,05,40,12.50
2008,07,25,05,41,12.60
2008,07,25,05,42,12.50
2008,07,25,05,43,12.60
2008,07,25,05,44,12.50
2008,07,25,05,45,12.50
2008,07,25,05,46,12.50
2008,07,25,05,47,12.50
2008,07,25,05,48,12.50
2008,07,25,05,49,12.40
2008,07,25,05,50,12.40
2008,07,25,05,51,12.40
2008,07,25,05,52,12.40
2008,07,25,05,53,12.40
2008,07,25,05,54,12.40
2008,07,25,05,55,12.40
2008,07,25,05,56,12.40
2008,07,25,05,57,12.50
2008,07,25,05,58,12.50
2008,07,25,05,59,12.50
2008,07,25,06,00,12.50
2008,07,25,06,01,12.50
2008,07,25,06,02,12.50
2008,07,25,06,03,12.60
2008,07,25,06,04,12.60
2008,07,25,06,05,12.60
2008,07,25,06,06,12.60
2008,07,25,06,07,12.70
2008,07,25,06,08,12.70
2008,07,25,06,09,12.70
2008,07,25,06,10,12.80
2008,07,25,06,11,12.80
2008,07,25,06,12,12.80
2008,07,25,06,13,12.80
2008,07,25,06,14,12.80
2008,07,25,06,15,12.80
2008,07,25,06,16,12.90
2008,07,25,06,17,12.90
2008,07,25,06,18,12.90
2008,07,25,06,19,13.00
2008,07,25,06,20,13.00
2008,07,25,06,21,13.10
2008,07,25,06,22,13.10
2008,07,25,06,23,13.10
2008,07,25,06,24,13.20
2008,07,25,06,25,13.20
2008,07,25,06,26,13.20
2008,07,25,06,27,13.20
2008,07,25,06,28,13.30
2008,07,25,06,29,13.30
2008,07,25,06,30,13.30
2008,07,25,06,31,13.30
2008,07,25,06,32,13.40
2008,07,25,06,33,13.40
2008,07,25,06,34,13.40
2008,07,25,06,35,13.50
2008,07,25,06,36,13.60
2008,07,25,06,37,13.60
2008,07,25,06,38,13.60
2008,07,25,06,39,13.60
2008,07,25,06,40,13.70
2008,07,25,06,41,13.70
2008,07,25,06,42,13.70
2008,07,25,06,43,13.70
2008,07,25,06,44,13.80
2008,07,25,06,45,13.80
2008,07,25,06,46,13.80
2008,07,25,06,47,13.90
2008,07,25,06,48,13.90
2008,07,25,06,49,13.90
2008,07,25,06,50,13.90
2008,07,25,06,51,14.00
2008,07,25,06,52,14.10
2008,07,25,06,53,14.10
2008,07,25,06,54,14.10
2008,07,25,06,55,14.20
2008,07,25,06,56,14.20
2008,07,25,06,57,14.20
2008,07,25,06,58,14.20
2008,07,25,06,59,14.30
2008,07,25,07,00,14.30
2008,07,25,07,01,14.30
2008,07,25,07,02,14.30
2008,07,25,07,03,14.40
2008,07,25,07,04,14.40
2008,07,25,07,05,14.50
2008,07,25,07,06,14.50
2008,07,25,07,07,14.60
2008,07,25,07,08,14.60
2008,07,25,07,09,14.70
2008,07,25,07,10,14.80
2008,07,25,07,11,14.90
2008,07,25,07,12,15.00
2008,07,25,07,13,15.00
2008,07,25,07,14,15.00
2008,07,25,07,15,15.10
2008,07,25,07,16,15.30
2008,07,25,07,17,15.50
2008,07,25,07,18,15.60
2008,07,25,07,19,15.80
2008,07,25,07,20,16.00
2008,07,25,07,21,16.10
2008,07,25,07,22,16.30
2008,07,25,07,23,16.40
2008,07,25,07,24,16.60
2008,07,25,07,25,16.70
2008,07,25,07,26,16.80
2008,07,25,07,27,16.90
2008,07,25,07,28,16.90
2008,07,25,07,29,17.00
2008,07,25,07,30,17.10
2008,07,25,07,31,17.20
2008,07,25,07,32,17.30
2008,07,25,07,33,17.40
2008,07,25,07,34,17.50
2008,07,25,07,35,17.60
2008,07,25,07,36,17.70
2008,07,25,07,37,17.80
2008,07,25,07,38,17.90
2008,07,25,07,39,18.00
2008,07,25,07,40,18.10
2008,07,25,07,41,18.20
2008,07,25,07,42,18.20
2008,07,25,07,43,18.30
2008,07,25,07,44,18.50
2008,07,25,07,45,18.60
2008,07,25,07,46,18.60
2008,07,25,07,47,18.70
2008,07,25,07,48,18.70
2008,07,25,07,49,18.70
2008,07,25,07,50,18.60
2008,07,25,07,51,18.50
2008,07,25,07,52,18.40
2008,07,25,07,53,18.40
2008,07,25,07,54,18.30
2008,07,25,07,55,18.30
2008,07,25,07,56,18.30
2008,07,25,07,57,18.30
2008,07,25,07,58,18.30
2008,07,25,07,59,18.30
2008,07,25,08,00,18.30
2008,07,25,08,01,18.30
2008,07,25,08,02,18.30
2008,07,25,08,03,18.40
2008,07,25,08,04,18.40
2008,07,25,08,05,18.40
2008,07,25,08,06,18.40
2008,07,25,08,07,18.40
2008,07,25,08,08,18.40
2008,07,25,08,09,18.40
2008,07,25,08,10,18.40
2008,07,25,08,11,18.40
2008,07,25,08,12,18.40
2008,07,25,08,13,18.30
2008,07,25,08,14,18.30
2008,07,25,08,15,18.30
2008,07,25,08,16,18.30
2008,07,25,08,17,18.20
2008,07,25,08,18,18.20
2008,07,25,08,19,18.20
2008,07,25,08,20,18.20
2008,07,25,08,21,18.10
2008,07,25,08,22,18.20
2008,07,25,08,23,18.20
2008,07,25,08,24,18.30
2008,07,25,08,25,18.40
2008,07,25,08,26,18.50
2008,07,25,08,27,18.50
2008,07,25,08,28,18.70
2008,07,25,08,29,18.80
2008,07,25,08,30,18.90
2008,07,25,08,31,18.90
2008,07,25,08,32,18.90
2008,07,25,08,33,19.10
2008,07,25,08,34,19.10
2008,07,25,08,35,19.20
2008,07,25,08,36,19.20
2008,07,25,08,37,19.20
2008,07,25,08,38,19.20
2008,07,25,08,39,19.10
2008,07,25,08,40,19.00
2008,07,25,08,41,19.00
2008,07,25,08,42,18.90
2008,07,25,08,43,18.80
2008,07,25,08,44,18.80
2008,07,25,08,45,18.80
2008,07,25,08,46,18.80
2008,07,25,08,47,18.80
2008,07,25,08,48,18.80
2008,07,25,08,49,18.70
2008,07,25,08,50,18.70
2008,07,25,08,51,18.70
2008,07,25,08,52,18.70
2008,07,25,08,53,18.70
2008,07,25,08,54,18.80
2008,07,25,08,55,18.80
2008,07,25,08,56,18.90
2008,07,25,08,57,19.10
2008,07,25,08,58,19.20
2008,07,25,08,59,19.20
2008,07,25,09,00,19.20
2008,07,25,09,01,19.20
2008,07,25,09,02,19.20
2008,07,25,09,03,19.10
2008,07,25,09,04,19.00
2008,07,25,09,05,19.00
2008,07,25,09,06,18.90
2008,07,25,09,07,18.90
2008,07,25,09,08,18.80
2008,07,25,09,09,18.80
2008,07,25,09,10,18.80
2008,07,25,09,11,18.80
2008,07,25,09,12,18.90
2008,07,25,09,13,18.90
2008,07,25,09,14,19.00
2008,07,25,09,15,19.10
2008,07,25,09,16,19.20
2008,07,25,09,17,19.20
2008,07,25,09,18,19.30
2008,07,25,09,19,19.40
2008,07,25,09,20,19.50
2008,07,25,09,21,19.50
2008,07,25,09,22,19.50
2008,07,25,09,23,19.60
2008,07,25,09,24,19.60
2008,07,25,09,25,19.60
2008,07,25,09,26,19.40
2008,07,25,09,27,19.30
2008,07,25,09,28,19.20
2008,07,25,09,29,19.20
2008,07,25,09,30,19.20
2008,07,25,09,31,19.20
2008,07,25,09,32,19.20
2008,07,25,09,33,19.20
2008,07,25,09,34,19.30
2008,07,25,09,35,19.20
2008,07,25,09,36,19.10
2008,07,25,09,37,19.10
2008,07,25,09,38,19.10
2008,07,25,09,39,19.20
2008,07,25,09,40,19.30
2008,07,25,09,41,19.30
2008,07,25,09,42,19.30
2008,07,25,09,43,19.30
2008,07,25,09,44,19.30
2008,07,25,09,45,19.30
2008,07,25,09,46,19.30
2008,07,25,09,47,19.30
2008,07,25,09,48,19.30
2008,07,25,09,49,19.30
2008,07,25,09,50,19.40
2008,07,25,09,51,19.30
2008,07,25,09,52,19.20
2008,07,25,09,53,19.00
2008,07,25,09,54,18.90
2008,07,25,09,55,18.80
2008,07,25,09,56,18.70
2008,07,25,09,57,18.60
2008,07,25,09,58,18.60
2008,07,25,09,59,18.50
2008,07,25,10,00,18.50
2008,07,25,10,01,18.50
2008,07,25,10,02,18.50
2008,07,25,10,03,18.60
2008,07,25,10,04,18.60
2008,07,25,10,05,18.60
2008,07,25,10,06,18.70
2008,07,25,10,07,18.70
2008,07,25,10,08,18.70
2008,07,25,10,09,18.70
2008,07,25,10,10,18.70
2008,07,25,10,11,18.70
2008,07,25,10,12,18.70
2008,07,25,10,13,18.70
2008,07,25,10,14,18.70
2008,07,25,10,15,18.70
2008,07,25,10,16,18.70
2008,07,25,10,17,18.60
2008,07,25,10,18,18.60
2008,07,25,10,19,18.60
2008,07,25,10,20,18.60
2008,07,25,10,21,18.60
2008,07,25,10,22,18.60
2008,07,25,10,23,18.60
2008,07,25,10,24,18.60
2008,07,25,10,25,18.60
2008,07,25,10,26,18.50
2008,07,25,10,27,18.40
2008,07,25,10,28,18.40
2008,07,25,10,29,18.30
2008,07,25,10,30,18.30
2008,07,25,10,31,18.30
2008,07,25,10,32,18.30
2008,07,25,10,33,18.20
2008,07,25,10,34,18.20
2008,07,25,10,35,18.20
2008,07,25,10,36,18.20
2008,07,25,10,37,18.10
2008,07,25,10,38,18.10
2008,07,25,10,39,18.00
2008,07,25,10,40,18.00
2008,07,25,10,41,17.90
2008,07,25,10,42,18.00
2008,07,25,10,43,18.00
2008,07,25,10,44,18.10
2008,07,25,10,45,18.20
2008,07,25,10,46,18.30
2008,07,25,10,47,18.40
2008,07,25,10,48,18.60
2008,07,25,10,49,18.80
2008,07,25,10,50,18.90
2008,07,25,10,51,19.00
2008,07,25,10,52,19.10
2008,07,25,10,53,19.10
2008,07,25,10,54,19.10
2008,07,25,10,55,19.20
2008,07,25,10,56,19.20
2008,07,25,10,57,19.20
2008,07,25,10,58,19.30
2008,07,25,10,59,19.30
2008,07,25,11,00,19.30
2008,07,25,11,01,19.40
2008,07,25,11,02,19.50
2008,07,25,11,03,19.70
2008,07,25,11,04,19.80
2008,07,25,11,05,19.90
2008,07,25,11,06,19.90
2008,07,25,11,07,19.90
2008,07,25,11,08,19.90
2008,07,25,11,09,20.00
2008,07,25,11,10,19.90
2008,07,25,11,11,19.80
2008,07,25,11,12,19.70
2008,07,25,11,13,19.60
2008,07,25,11,14,19.40
2008,07,25,11,15,19.30
2008,07,25,11,16,19.30
2008,07,25,11,17,19.20
2008,07,25,11,18,19.20
2008,07,25,11,19,19.10
2008,07,25,11,20,19.00
2008,07,25,11,21,19.00
2008,07,25,11,22,18.90
2008,07,25,11,23,19.00
2008,07,25,11,24,19.00
2008,07,25,11,25,19.00
2008,07,25,11,26,18.90
2008,07,25,11,27,18.80
2008,07,25,11,28,18.90
2008,07,25,11,29,18.90
2008,07,25,11,30,18.90
2008,07,25,11,31,19.00
2008,07,25,11,32,19.10
2008,07,25,11,33,19.10
2008,07,25,11,34,19.10
2008,07,25,11,35,19.10
2008,07,25,11,36,19.00
2008,07,25,11,37,18.90
2008,07,25,11,38,18.90
2008,07,25,11,39,18.80
2008,07,25,11,40,18.80
2008,07,25,11,41,18.80
2008,07,25,11,42,18.80
2008,07,25,11,43,18.80
2008,07,25,11,44,18.80
2008,07,25,11,45,18.70
2008,07,25,11,46,18.60
2008,07,25,11,47,18.60
2008,07,25,11,48,18.70
2008,07,25,11,49,18.70
2008,07,25,11,50,18.70
2008,07,25,11,51,18.80
2008,07,25,11,52,18.80
2008,07,25,11,53,18.70
2008,07,25,11,54,18.60
2008,07,25,11,55,18.50
2008,07,25,11,56,18.50
2008,07,25,11,57,18.40
2008,07,25,11,58,18.40
2008,07,25,11,59,18.40
2008,07,25,12,00,18.50
2008,07,25,12,01,18.50
2008,07,25,12,02,18.50
2008,07,25,12,03,18.50
2008,07,25,12,04,18.50
2008,07,25,12,05,18.50
2008,07,25,12,06,18.50
2008,07,25,12,07,18.50
2008,07,25,12,08,18.60
2008,07,25,12,09,18.60
2008,07,25,12,10,18.70
2008,07,25,12,11,18.60
2008,07,25,12,12,18.60
2008,07,25,12,13,18.60
2008,07,25,12,14,18.60
2008,07,25,12,15,18.70
2008,07,25,12,16,18.70
2008,07,25,12,17,18.80
2008,07,25,12,18,18.90
2008,07,25,12,19,18.90
2008,07,25,12,20,19.00
2008,07,25,12,21,19.00
2008,07,25,12,22,19.10
2008,07,25,12,23,19.10
2008,07,25,12,24,19.00
2008,07,25,12,25,19.00
2008,07,25,12,26,18.90
2008,07,25,12,27,18.90
2008,07,25,12,28,19.00
2008,07,25,12,29,19.00
2008,07,25,12,30,18.90
2008,07,25,12,31,18.90
2008,07,25,12,32,18.90
2008,07,25,12,33,18.90
2008,07,25,12,34,18.90
2008,07,25,12,35,18.90
2008,07,25,12,36,18.90
2008,07,25,12,37,18.90
2008,07,25,12,38,18.90
2008,07,25,12,39,18.90
2008,07,25,12,40,19.00
2008,07,25,12,41,19.00
2008,07,25,12,42,19.10
2008,07,25,12,43,19.10
2008,07,25,12,44,19.20
2008,07,25,12,45,19.20
2008,07,25,12,46,19.30
2008,07,25,12,47,19.50
2008,07,25,12,48,19.60
2008,07,25,12,49,19.70
2008,07,25,12,50,19.70
2008,07,25,12,51,19.60
2008,07,25,12,52,19.50
2008,07,25,12,53,19.30
2008,07,25,12,54,19.20
2008,07,25,12,55,19.10
2008,07,25,12,56,19.00
2008,07,25,12,57,18.90
2008,07,25,12,58,18.90
2008,07,25,12,59,18.80
2008,07,25,13,00,18.70
2008,07,25,13,01,18.60
2008,07,25,13,02,18.60
2008,07,25,13,03,18.60
2008,07,25,13,04,18.70
2008,07,25,13,05,18.70
2008,07,25,13,06,18.70
2008,07,25,13,07,18.70
2008,07,25,13,08,18.80
2008,07,25,13,09,18.80
2008,07,25,13,10,18.90
2008,07,25,13,11,18.90
2008,07,25,13,12,19.00
2008,07,25,13,13,19.10
2008,07,25,13,14,19.20
2008,07,25,13,15,19.30
2008,07,25,13,16,19.40
2008,07,25,13,17,19.40
2008,07,25,13,18,19.50
2008,07,25,13,19,19.70
2008,07,25,13,20,19.80
2008,07,25,13,21,19.90
2008,07,25,13,22,20.00
2008,07,25,13,23,20.00
2008,07,25,13,24,20.10
2008,07,25,13,25,20.30
2008,07,25,13,26,20.40
2008,07,25,13,27,20.50
2008,07,25,13,28,20.60
2008,07,25,13,29,20.70
2008,07,25,13,30,20.90
2008,07,25,13,31,21.00
2008,07,25,13,32,21.10
2008,07,25,13,33,21.10
2008,07,25,13,34,21.20
2008,07,25,13,35,21.30
2008,07,25,13,36,21.30
2008,07,25,13,37,21.40
2008,07,25,13,38,21.50
2008,07,25,13,39,21.60
2008,07,25,13,40,21.70
2008,07,25,13,41,21.80
2008,07,25,13,42,21.80
2008,07,25,13,43,21.80
2008,07,25,13,44,21.80
2008,07,25,13,45,21.90
2008,07,25,13,46,22.00
2008,07,25,13,47,22.00
2008,07,25,13,48,22.10
2008,07,25,13,49,22.10
2008,07,25,13,50,22.10
2008,07,25,13,51,22.20
2008,07,25,13,52,22.10
2008,07,25,13,53,22.10
2008,07,25,13,54,22.00
2008,07,25,13,55,21.90
2008,07,25,13,56,21.80
2008,07,25,13,57,21.70
2008,07,25,13,58,21.70
2008,07,25,13,59,21.60
2008,07,25,14,00,21.60
2008,07,25,14,01,21.50
2008,07,25,14,02,21.50
2008,07,25,14,03,21.40
2008,07,25,14,04,21.40
2008,07,25,14,05,21.40
2008,07,25,14,06,21.30
2008,07,25,14,07,21.20
2008,07,25,14,08,21.20
2008,07,25,14,09,21.10
2008,07,25,14,10,21.10
2008,07,25,14,11,21.10
2008,07,25,14,12,21.00
2008,07,25,14,13,21.00
2008,07,25,14,14,20.80
2008,07,25,14,15,20.80
2008,07,25,14,16,20.70
2008,07,25,14,17,20.60
2008,07,25,14,18,20.50
2008,07,25,14,19,20.50
2008,07,25,14,20,20.40
2008,07,25,14,21,20.20
2008,07,25,14,22,20.10
2008,07,25,14,23,20.00
2008,07,25,14,24,20.00
2008,07,25,14,25,20.00
2008,07,25,14,26,19.90
2008,07,25,14,27,19.90
2008,07,25,14,28,19.90
2008,07,25,14,29,20.00
2008,07,25,14,30,20.00
2008,07,25,14,31,20.10
2008,07,25,14,32,20.10
2008,07,25,14,33,20.20
2008,07,25,14,34,20.30
2008,07,25,14,35,20.40
2008,07,25,14,36,20.50
2008,07,25,14,37,20.60
2008,07,25,14,38,20.70
2008,07,25,14,39,20.90
2008,07,25,14,40,21.10
2008,07,25,14,41,21.20
2008,07,25,14,42,21.30
2008,07,25,14,43,21.40
2008,07,25,14,44,21.50
2008,07,25,14,45,21.60
2008,07,25,14,46,21.60
2008,07,25,14,47,21.60
2008,07,25,14,48,21.70
2008,07,25,14,49,21.80
2008,07,25,14,50,21.80
2008,07,25,14,51,22.00
2008,07,25,14,52,22.20
2008,07,25,14,53,22.30
2008,07,25,14,54,22.40
2008,07,25,14,55,22.50
2008,07,25,14,56,22.60
2008,07,25,14,57,22.60
2008,07,25,14,58,22.50
2008,07,25,14,59,22.50
2008,07,25,15,00,22.50
2008,07,25,15,01,22.50
2008,07,25,15,02,22.40
2008,07,25,15,03,22.30
2008,07,25,15,04,22.30
2008,07,25,15,05,22.20
2008,07,25,15,06,22.20
2008,07,25,15,07,22.20
2008,07,25,15,08,22.20
2008,07,25,15,09,22.30
2008,07,25,15,10,22.20
2008,07,25,15,11,22.20
2008,07,25,15,12,22.20
2008,07,25,15,13,22.10
2008,07,25,15,14,22.10
2008,07,25,15,15,22.20
2008,07,25,15,16,22.20
2008,07,25,15,17,22.30
2008,07,25,15,18,22.30
2008,07,25,15,19,22.30
2008,07,25,15,20,22.30
2008,07,25,15,21,22.30
2008,07,25,15,22,22.40
2008,07,25,15,23,22.40
2008,07,25,15,24,22.30
2008,07,25,15,25,22.20
2008,07,25,15,26,22.00
2008,07,25,15,27,21.90
2008,07,25,15,28,21.80
2008,07,25,15,29,21.80
2008,07,25,15,30,21.70
2008,07,25,15,31,21.70
2008,07,25,15,32,21.50
2008,07,25,15,33,21.40
2008,07,25,15,34,21.30
2008,07,25,15,35,21.20
2008,07,25,15,36,21.20
2008,07,25,15,37,21.20
2008,07,25,15,38,21.20
2008,07,25,15,39,21.20
2008,07,25,15,40,21.10
2008,07,25,15,41,21.10
2008,07,25,15,42,21.10
2008,07,25,15,43,21.20
2008,07,25,15,44,21.30
2008,07,25,15,45,21.30
2008,07,25,15,46,21.20
2008,07,25,15,47,21.20
2008,07,25,15,48,21.10
2008,07,25,15,49,21.10
2008,07,25,15,50,21.10
2008,07,25,15,51,21.10
2008,07,25,15,52,21.10
2008,07,25,15,53,21.10
2008,07,25,15,54,21.00
2008,07,25,15,55,20.90
2008,07,25,15,56,20.90
2008,07,25,15,57,20.80
2008,07,25,15,58,20.70
2008,07,25,15,59,20.70
2008,07,25,16,00,20.60
2008,07,25,16,01,20.60
2008,07,25,16,02,20.50
2008,07,25,16,03,20.50
2008,07,25,16,04,20.40
2008,07,25,16,05,20.40
2008,07,25,16,06,20.40
2008,07,25,16,07,20.40
2008,07,25,16,08,20.40
2008,07,25,16,09,20.50
2008,07,25,16,10,20.60
2008,07,25,16,11,20.80
2008,07,25,16,12,20.90
2008,07,25,16,13,21.00
2008,07,25,16,14,21.20
2008,07,25,16,15,21.30
2008,07,25,16,16,21.30
2008,07,25,16,17,21.40
2008,07,25,16,18,21.50
2008,07,25,16,19,21.60
2008,07,25,16,20,21.50
2008,07,25,16,21,21.40
2008,07,25,16,22,21.40
2008,07,25,16,23,21.40
2008,07,25,16,24,21.30
2008,07,25,16,25,21.30
2008,07,25,16,26,21.30
2008,07,25,16,27,21.30
2008,07,25,16,28,21.30
2008,07,25,16,29,21.40
2008,07,25,16,30,21.50
2008,07,25,16,31,21.60
2008,07,25,16,32,21.70
2008,07,25,16,33,21.80
2008,07,25,16,34,21.80
2008,07,25,16,35,21.90
2008,07,25,16,36,22.20
2008,07,25,16,37,22.40
2008,07,25,16,38,22.60
2008,07,25,16,39,22.70
2008,07,25,16,40,22.90
2008,07,25,16,41,23.00
2008,07,25,16,42,23.20
2008,07,25,16,43,23.20
2008,07,25,16,44,23.40
2008,07,25,16,45,23.40
2008,07,25,16,46,23.50
2008,07,25,16,47,23.60
2008,07,25,16,48,23.60
2008,07,25,16,49,23.70
2008,07,25,16,50,23.70
2008,07,25,16,51,23.70
2008,07,25,16,52,23.80
2008,07,25,16,53,23.80
2008,07,25,16,54,23.90
2008,07,25,16,55,24.00
2008,07,25,16,56,24.10
2008,07,25,16,57,24.10
2008,07,25,16,58,24.20
2008,07,25,16,59,24.20
2008,07,25,17,00,24.30
2008,07,25,17,01,24.30
2008,07,25,17,02,24.40
2008,07,25,17,03,24.40
2008,07,25,17,04,24.40
2008,07,25,17,05,24.40
2008,07,25,17,06,24.40
2008,07,25,17,07,24.50
2008,07,25,17,08,24.50
2008,07,25,17,09,24.60
2008,07,25,17,10,24.70
2008,07,25,17,11,24.80
2008,07,25,17,12,24.90
2008,07,25,17,13,25.00
2008,07,25,17,14,25.10
2008,07,25,17,15,25.20
2008,07,25,17,16,25.30
2008,07,25,17,17,25.40
2008,07,25,17,18,25.40
2008,07,25,17,19,25.30
2008,07,25,17,20,25.30
2008,07,25,17,21,25.30
2008,07,25,17,22,25.40
2008,07,25,17,23,25.40
2008,07,25,17,24,25.40
2008,07,25,17,25,25.50
2008,07,25,17,26,25.50
2008,07,25,17,27,25.50
2008,07,25,17,28,25.40
2008,07,25,17,29,25.30
2008,07,25,17,30,25.30
2008,07,25,17,31,25.40
2008,07,25,17,32,25.40
2008,07,25,17,33,25.50
2008,07,25,17,34,25.60
2008,07,25,17,35,25.70
2008,07,25,17,36,25.70
2008,07,25,17,37,25.70
2008,07,25,17,38,25.60
2008,07,25,17,39,25.60
2008,07,25,17,40,25.60
2008,07,25,17,41,25.70
2008,07,25,17,42,25.70
2008,07,25,17,43,25.80
2008,07,25,17,44,25.80
2008,07,25,17,45,25.80
2008,07,25,17,46,25.90
2008,07,25,17,47,25.90
2008,07,25,17,48,25.90
2008,07,25,17,49,25.90
2008,07,25,17,50,25.90
2008,07,25,17,51,25.90
2008,07,25,17,52,25.90
2008,07,25,17,53,25.90
2008,07,25,17,54,25.80
2008,07,25,17,55,25.70
2008,07,25,17,56,25.60
2008,07,25,17,57,25.50
2008,07,25,17,58,25.40
2008,07,25,17,59,25.40
2008,07,25,18,00,25.40
2008,07,25,18,01,25.40
2008,07,25,18,02,25.40
2008,07,25,18,03,25.30
2008,07,25,18,04,25.30
2008,07,25,18,05,25.30
2008,07,25,18,06,25.20
2008,07,25,18,07,25.10
2008,07,25,18,08,25.10